This is the latest recevied weather packets stored in our database for station/object W7TJC. If no packets are shown the sender has not sent any weather packets the latest 10 day(s).
| Time | Temp. | Humidity | Pressure | Rain* | Wind** | Luminosity | Snow |
|---|---|---|---|---|---|---|---|
| 1777844330 | 26.67° C | 37% | 1012.8 hPa | 0 mm | - | 622 W/m² | - |
| 1777844028 | 26.67° C | 39% | 1013 hPa | 0 mm | - | 578 W/m² | - |
| 1777843724 | 26.67° C | 37% | 1012.9 hPa | 0 mm | - | 589 W/m² | - |
| 1777843423 | 26.67° C | 35% | 1013.2 hPa | 0 mm | - | 677 W/m² | - |
| 1777843119 | 26.67° C | 36% | 1013.1 hPa | 0 mm | - | 736 W/m² | - |
| 1777842816 | 27.22° C | 35% | 1013.1 hPa | 0 mm | - | 651 W/m² | - |
| 1777842511 | 27.22° C | 37% | 1013.2 hPa | 0 mm | - | 635 W/m² | - |
| 1777842209 | 27.78° C | 37% | 1013.2 hPa | 0 mm | - | 609 W/m² | - |
| 1777841904 | 27.78° C | 37% | 1013.2 hPa | 0 mm | - | 685 W/m² | - |
| 1777841600 | 27.22° C | 38% | 1013.1 hPa | 0 mm | - | 737 W/m² | - |
| 1777841297 | 26.67° C | 39% | 1013.4 hPa | 0 mm | - | 761 W/m² | - |
| 1777840995 | 26.67° C | 39% | 1013.4 hPa | 0 mm | - | 788 W/m² | - |
| 1777840692 | 26.11° C | 41% | 1013.5 hPa | 0 mm | - | 768 W/m² | - |
| 1777840389 | 25.56° C | 43% | 1013.5 hPa | 0 mm | - | 720 W/m² | - |
| 1777840086 | 25.56° C | 41% | 1013.3 hPa | 0 mm | - | 710 W/m² | - |
| 1777839784 | 26.11° C | 43% | 1013.7 hPa | 0 mm | - | 701 W/m² | - |
| 1777839481 | 25.56° C | 40% | 1013.6 hPa | 0 mm | - | 732 W/m² | - |
| 1777839179 | 25.56° C | 44% | 1013.7 hPa | 0 mm | - | 773 W/m² | - |
| 1777838876 | 25.56° C | 43% | 1013.9 hPa | 0 mm | - | 782 W/m² | - |
| 1777838571 | 26.11° C | 41% | 1013.8 hPa | 0 mm | - | 729 W/m² | - |
| 1777838269 | 25.56° C | 41% | 1013.9 hPa | 0 mm | - | 641 W/m² | - |
| 1777837966 | 25.56° C | 41% | 1013.9 hPa | 0 mm | - | 611 W/m² | - |
| 1777837663 | 25.56° C | 44% | 1014.1 hPa | 0 mm | - | 658 W/m² | - |
| 1777837359 | 25° C | 45% | 1014 hPa | 0 mm | - | 745 W/m² | - |
| 1777837055 | 25° C | 43% | 1014.2 hPa | 0 mm | - | 740 W/m² | - |
* Rain latest hour (hover to see other rain measurements)
** Current wind speed in m/s (hover to see current wind gust speed)